Location: Columbia
(38.9520°N, 92.3340°W)
Time: 12:13:28
(UTC-05:00)

Daily predictions for brighter satellites

Satellite Brightness Start Highest point End
(mag) Time Altitude Azimuth Time Altitude Azimuth Time Altitude Azimuth
Cosmos 1624 Rocket 4.5 21:02:30 10° NNW 21:07:47 65° WSW 21:13:02 10° S
H-2A R/B 3.2 21:12:28 10° SE 21:16:58 30° ENE 21:21:34 10° N
Cosmos 1943 3.3 21:17:05 10° NNW 21:22:45 80° WSW 21:28:22 10° SSE
Cosmos 1400 Rocket 2.8 21:20:55 10° S 21:24:58 83° E 21:28:59 10° N
Cosmos 1825 Rocket 4.0 21:20:58 10° SSE 21:25:12 44° E 21:29:27 10° NNE
Aureole 1 Rocket 2.7 21:23:19 10° S 21:26:14 43° ESE 21:29:37 10° NNE
Cosmos 2285 Rocket 4.4 21:23:37 10° S 21:29:32 43° E 21:35:26 10° NNE
ERS-2 2.4 21:26:20 10° S 21:29:59 69° WSW 21:33:39 10° NNW
NOSS 2-3 (D) 4.4 21:26:05 10° SW 21:30:32 61° NW 21:35:43 10° NNE
Thor Agena Rocket 4.5 21:27:11 10° N 21:32:08 52° WNW 21:37:02 10° SSW
ATLAS 3B R/B 4.3 21:31:44 10° N 21:36:43 21° NE 21:41:36 10° E
Cosmos 1346 Rocket 4.2 21:33:58 10° NNE 21:37:14 24° ENE 21:39:41 14° ESE
ARGOS 3.4 21:32:46 10° SSE 21:38:04 57° ENE 21:43:23 10° N
SWAS 4.5 21:34:34 10° NNW 21:38:55 86° WSW 21:42:51 12° SSE
Cosmos 1470 4.0 21:36:46 10° NNW 21:40:26 40° W 21:44:06 10° SSW
Cosmos 2266 Rocket 4.1 21:37:29 10° N 21:43:55 89° W 21:50:14 10° S
Cosmos 1844 Rocket 3.1 21:42:46 10° S 21:48:03 42° ESE 21:53:22 10° NE
Meteor 1-24 Rocket 4.0 21:43:49 10° S 21:49:40 56° E 21:55:33 10° NNE
MetOp-A 4.2 21:45:48 12° SSE 21:50:43 71° ENE 21:56:04 10° N
Meteor 2-5 Rocket 4.0 21:53:32 10° SSW 21:59:28 80° W 22:05:25 10° N
ATLAS 2AS CENTAUR R/B 3.0 21:52:08 10° SSW 21:59:43 64° ESE 22:07:43 10° NE
SPOT 5 3.8 21:59:19 18° SE 22:02:22 36° ENE 22:07:06 10° N
Centaur D-1A AC-35 4.1 22:02:14 10° SSW 22:03:10 11° S 22:03:10 11° S
BREEZE-M R/B 4.0 22:06:19 10° W 22:08:12 16° SW 22:09:06 14° SSW
Lacrosse 5 2.1 22:04:47 10° SW 22:09:50 73° NW 22:14:55 10° NE
ERS-1 Rocket 3.0 22:06:47 20° SSE 22:10:12 66° ENE 22:15:13 10° N
Cosmos 1238 Rocket 2.1 22:08:13 17° SSW 22:10:20 77° W 22:13:18 10° N
Iridium 4 Rocket 4.1 22:06:59 10° SSW 22:12:40 63° W 22:17:59 10° N
Cosmos 1553 Rocket 4.2 22:09:11 19° SSE 22:13:22 48° E 22:19:09 10° NNE
Cosmos 1908 3.8 22:10:06 10° N 22:13:47 42° E 22:15:12 29° SE
Cosmos-2242 3.0 22:12:03 10° N 22:16:26 74° E 22:18:55 25° SSE
Meteor 1-29 4.5 22:22:03 10° NE 22:24:13 21° E 22:24:13 21° E
Cosmos 2084 3.3 22:22:10 10° NNW 22:25:58 62° NE 22:27:20 36° ESE
SL-8 R/B 3.6 22:24:30 10° SW 22:29:20 87° SSE 22:34:12 10° ENE
USA 215 4.5 22:24:54 14° S 22:29:35 30° SW 22:35:14 10° WNW
OAO 3 Rocket 3.3 22:25:31 10° WSW 22:30:21 55° S 22:32:33 30° ESE
Resurs 01 Rocket 4.4 22:30:15 10° WSW 22:31:59 12° W 22:33:44 10° WNW
Cosmos 1626 4.4 22:35:20 13° ENE 22:35:20 13° ENE 22:36:23 10° ENE
CZ-2C R/B 3.8 22:30:54 10° NE 22:35:10 23° E 22:35:50 23° ESE
Cosmos 1340 3.2 22:31:37 10° N 22:35:14 42° ENE 22:35:53 38° ESE
NOSS 3-4 (A) 4.1 22:35:39 29° SE 22:37:14 33° ESE 22:42:45 10° NE
NOSS 3-4 (C) 4.1 22:35:49 29° SE 22:37:19 32° ESE 22:42:50 10° NE
Helios 1A 2.9 22:36:24 38° SSE 22:37:54 74° ENE 22:42:06 10° N
Cosmos 1674 3.2 22:43:16 25° SSW 22:45:17 57° W 22:49:05 10° N
Cosmos 1300 3.7 22:43:23 10° NNE 22:46:49 31° ENE 22:46:59 31° E
Cosmos 1437 4.4 22:47:35 10° NNW 22:50:19 27° W 22:51:19 22° SW
Landsat 7 3.7 22:50:31 40° SSE 22:52:14 85° ENE 22:57:00 10° NNW
Meteor 1-21 Rocket 4.3 22:49:44 32° SSE 22:52:27 65° E 22:58:13 10° NNE
Helios 1B rocket 2.3 22:49:11 10° NNE 22:53:17 80° E 22:54:22 48° S
SPOT 1/Viking Rocket 3.6 22:53:26 34° S 22:55:42 74° WSW 23:00:52 10° NNW
H-2A R/B 3.4 22:52:28 15° SSW 22:56:14 33° W 23:01:04 10° NNW
Cosmos 1110 Rocket 4.1 22:55:48 10° NNW 23:00:57 69° WSW 23:02:49 39° S
APEX 3.7 23:00:24 10° N 23:03:12 39° NE 23:03:12 39° NE
Cosmos 2221 2.9 23:01:37 10° N 23:05:48 45° E 23:06:07 44° E
Cosmos 2278 Rocket 2.2 23:05:20 41° S 23:07:11 62° ESE 23:12:48 10° NNE
Cosmos 1745 Rocket 4.0 23:03:09 10° N 23:09:29 84° W 23:12:13 36° S
Cosmos 1726 2.8 23:07:17 10° NNW 23:10:55 47° W 23:11:29 43° WSW
SL-14 R/B 3.0 23:11:02 81° SSE 23:11:13 86° E 23:15:09 10° N
Terra 1.7 23:10:29 54° SSE 23:11:35 87° ENE 23:16:23 10° NNW
Cosmos 921 Rocket 4.0 23:08:27 10° NNW 23:12:39 41° W 23:13:56 33° SW
Cosmos 1331 Rocket 4.4 23:11:11 10° NNW 23:16:16 56° WSW 23:17:51 40° SSW
Spot 1 4.0 23:17:05 63° S 23:17:44 79° WSW 23:22:14 10° NNW
COSMOS 2406 3.3 23:12:02 10° NNW 23:17:47 71° WSW 23:19:32 45° S
TELKOM 3 4.4 23:13:10 10° WNW 23:19:00 75° SW 23:19:20 70° S
USA 238 DEB 3.9 23:17:46 10° NW 23:24:53 70° WSW 23:27:33 41° S
USA 238 3.8 23:17:52 10° NW 23:25:00 71° WSW 23:27:39 41° S
BREEZE-M DEB (TANK) 3.8 23:14:53 10° SW 23:25:14 64° SE 23:29:10 10° ENE
ATLAS 3B R/B 2.5 23:21:34 10° NNW 23:28:13 86° WSW 23:30:17 47° SSE
CARTOSAT-1 4.2 23:30:14 43° SW 23:30:51 46° W 23:35:02 10° NNW
Spot 4 4.2 23:30:38 48° E 23:31:11 50° ENE 23:35:54 10° N
NOSS 2-2 (C) 4.5 23:34:49 33° ENE 23:34:49 33° ENE 23:37:21 10° NE
CZ-2C R/B 3.4 23:34:52 47° SSW 23:36:32 70° WSW 23:42:20 10° NNW
NOSS 3-2 (A) 4.0 23:30:54 10° NW 23:38:35 88° WSW 23:41:45 43° SSE
Cosmos 1461 3.3 23:39:29 54° WSW 23:40:26 73° WNW 23:45:13 10° NNE
YAOGAN 11 4.3 23:40:45 61° SW 23:41:07 63° WSW 23:45:39 10° NNW
ALOS 2 4.5 23:41:19 19° ENE 23:41:30 19° ENE 23:44:38 10° NNE
Cosmos 1302 Rocket 4.2 23:37:37 10° NNW 23:42:50 59° WSW 23:43:39 52° SW
Cosmos 2251 Rocket 4.3 23:40:03 25° SW 23:42:55 49° WNW 23:48:05 10° N
Cosmos 1709 Rocket 3.9 23:36:53 10° N 23:43:09 89° E 23:44:40 54° S
RESURS DK-1 3.9 23:48:17 26° ENE 23:48:17 26° ENE 23:50:27 10° NE
Cosmos 2297 3.9 23:47:59 50° ESE 23:47:59 50° ESE 23:53:27 10° NNE
ATLAS 3B CENTAUR R/B 4.3 23:40:15 10° SW 23:48:46 28° SSW 23:48:46 28° SSW
EO 1 Delta rocket 4.4 23:45:16 10° N 23:52:08 88° WNW 23:53:26 57° SSW
Cosmos 1766 Rocket 3.9 23:54:47 56° ENE 23:54:47 56° ENE 23:58:38 10° NNE
ATLAS 5 CENTAUR R/B 1.6 23:54:46 77° NE 23:54:46 77° NE 23:59:16 10° NE
Cosmos 1408 Rocket 4.2 23:56:20 45° ENE 23:56:20 45° ENE 23:59:55 10° NNE
